Regional Weather Roundup
Issued by NWS

Home | Current Version | Previous Version | Text Only | Print | Product List | Glossary On
Versions: 1 2 3 4 5 6 7 8 9 10 11 12 13 14 15 16 17 18 19 20 21 22 23 24 25 26 27
000
ASCA42 TJSJ 232110
RWRPR
PUERTO RICO/U.S. VIRGIN ISLANDS HOURLY WEATHER ROUNDUP
NATIONAL WEATHER SERVICE SAN JUAN PR
500 PM AST SUN APR 23 2017

PRZ001>002-007>008-010-232200-
PUERTO RICO

CITY           SKY/WX    TMP DP  RH WIND       PRES   REMARKS
SAN JUAN LMM   PTSUNNY   82  73  74 E12       29.90F
AGUADILLA      CLOUDY    75  73  94 E6        29.89F
CEIBA          CLOUDY   N/A N/A N/A E15       29.93F
$$

VIZ001>002-232200-
U.S. VIRGIN ISLANDS

CITY           SKY/WX    TMP DP  RH WIND       PRES   REMARKS
CHARLOTTE AMA  PTSUNNY   82  72  69 E18       29.91F
CHRISTIANSTED  CLOUDY    81  73  78 E13       29.91F
$$

HOURLY WEATHER ROUNDUP FOR THE NEWS MEDIA

CITY           SKY/WX    TMP DP  RH WIND       PRES   REMARKS
ORLANDO        CLOUDY    85  61  44 SE14      29.77F
NEW YORK       PTSUNNY   54  42  64 S14       30.10R
NEWARK         CLOUDY    64  38  38 SE8       30.06S
CHICAGO        SUNNY     71  32  23 E9        30.03F
HARTFORD       CLOUDY    53  41  63 S13       30.07R
BOSTON         MOSUNNY   52  40  63 E20       30.03F
DALLAS         MOSUNNY   74  38  27 N14G25    30.06F
PHILADELPHIA   CLOUDY    64  38  38 CALM      30.07S
LOS ANGELES    MOSUNNY   68  56  65 W16       29.87S
WASHINGTON DC  CLOUDY    58  42  55 SE6       30.08S



USA.gov is the U.S. government's official web portal to all federal, state and local government web resources and services.